When you browse on this site, cookies collect data to enhance your experience and personalize the content and advertising you see.
Visit our Privacy Policy to learn more. By continuing to use the site, you agree to this use of cookies and data.
  • In Portugal
  • List of Countries
  • For 7 days
  • Water Temperature
  • Satellite Maps
  • Weather Map
  • Weather Widgets
  • user-avatar
    Login

    Hourly Weather Orehovo

    Today, 26 April, Friday

    Time Temperature Precipitation Wind Pressure Humidity
    00:00 +6°C° 0 mm 2 mps 751 mmHg 55%
    01:00 +6°C° 0 mm 2 mps 751 mmHg 56%
    02:00 +6°C° 0 mm 2 mps 751 mmHg 58%
    03:00 +5°C° 0 mm 2 mps 751 mmHg 58%
    04:00 +5°C° 0 mm 2 mps 751 mmHg 59%
    05:00 +5°C° 0 mm 2 mps 752 mmHg 61%
    06:00 +5°C° 0 mm 2 mps 752 mmHg 62%
    07:00 +6°C° 0 mm 2 mps 752 mmHg 57%
    08:00 +8°C° 0 mm 2 mps 752 mmHg 53%
    09:00 +9°C° 0 mm 2 mps 752 mmHg 48%
    10:00 +10°C° 0 mm 3 mps 752 mmHg 44%
    11:00 +11°C° 0 mm 4 mps 752 mmHg 40%
    12:00 +12°C° 0 mm 5 mps 752 mmHg 36%
    13:00 +12°C° 0 mm 5 mps 751 mmHg 33%
    14:00 +13°C° 0 mm 5 mps 751 mmHg 31%
    15:00 +13°C° 0 mm 6 mps 751 mmHg 28%
    16:00 +13°C° 0 mm 5 mps 751 mmHg 30%
    17:00 +12°C° 0 mm 5 mps 751 mmHg 32%
    18:00 +12°C° 0 mm 5 mps 751 mmHg 33%
    19:00 +10°C° 0 mm 4 mps 751 mmHg 36%
    20:00 +9°C° 0 mm 3 mps 751 mmHg 39%
    21:00 +8°C° 0 mm 2 mps 752 mmHg 42%
    22:00 +8°C° 0 mm 2 mps 752 mmHg 44%
    23:00 +8°C° 0 mm 1 mps 752 mmHg 46%

    Tomorrow, 27 April, Saturday

    Time Temperature Precipitation Wind Pressure Humidity
    00:00 +8°C° 0 mm 1 mps 752 mmHg 47%
    01:00 +8°C° 0 mm 1 mps 752 mmHg 52%
    02:00 +7°C° 0 mm 1 mps 752 mmHg 57%
    03:00 +5°C° 0 mm 2 mps 752 mmHg 62%
    04:00 +5°C° 0 mm 2 mps 752 mmHg 65%
    05:00 +5°C° 0 mm 1 mps 752 mmHg 68%
    06:00 +5°C° 0 mm 1 mps 752 mmHg 71%
    07:00 +7°C° 0 mm 1 mps 752 mmHg 62%
    08:00 +10°C° 0 mm 1 mps 752 mmHg 52%
    09:00 +12°C° 0 mm 1 mps 752 mmHg 43%
    10:00 +14°C° 0 mm 2 mps 752 mmHg 37%
    11:00 +14°C° 0 mm 3 mps 752 mmHg 31%
    12:00 +17°C° 0 mm 4 mps 751 mmHg 26%
    13:00 +17°C° 0 mm 4 mps 751 mmHg 25%
    14:00 +17°C° 0 mm 3 mps 751 mmHg 24%
    15:00 +18°C° 0 mm 3 mps 750 mmHg 23%
    16:00 +17°C° 0 mm 3 mps 750 mmHg 25%
    17:00 +17°C° 0 mm 2 mps 750 mmHg 27%
    18:00 +18°C° 0 mm 1 mps 750 mmHg 29%
    19:00 +15°C° 0 mm 2 mps 751 mmHg 32%
    20:00 +12°C° 0 mm 3 mps 751 mmHg 35%
    21:00 +10°C° 0 mm 3 mps 752 mmHg 38%
    22:00 +10°C° 0 mm 3 mps 752 mmHg 42%
    23:00 +9°C° 0 mm 3 mps 752 mmHg 45%

    Day after tomorrow, 28 April, Sunday

    Time Temperature Precipitation Wind Pressure Humidity
    00:00 +8°C° 0 mm 3 mps 752 mmHg 49%
    01:00 +8°C° 0 mm 3 mps 752 mmHg 50%
    02:00 +7°C° 0 mm 3 mps 752 mmHg 52%
    03:00 +7°C° 0 mm 2 mps 752 mmHg 54%
    04:00 +6°C° 0 mm 2 mps 752 mmHg 56%
    05:00 +6°C° 0 mm 2 mps 752 mmHg 58%
    06:00 +6°C° 0 mm 2 mps 752 mmHg 60%
    07:00 +9°C° 0 mm 2 mps 752 mmHg 54%
    08:00 +11°C° 0 mm 3 mps 752 mmHg 48%
    09:00 +13°C° 0 mm 3 mps 752 mmHg 42%
    10:00 +16°C° 0 mm 3 mps 751 mmHg 36%
    11:00 +18°C° 0 mm 3 mps 751 mmHg 30%
    12:00 +20°C° 0 mm 4 mps 751 mmHg 23%
    13:00 +20°C° 0 mm 4 mps 750 mmHg 24%
    14:00 +20°C° 0 mm 5 mps 750 mmHg 25%
    15:00 +21°C° 0 mm 6 mps 749 mmHg 26%
    16:00 +19°C° 0 mm 6 mps 749 mmHg 30%
    17:00 +16°C° 0 mm 7 mps 749 mmHg 35%
    18:00 +15°C° 0 mm 7 mps 749 mmHg 39%
    19:00 +14°C° 0 mm 7 mps 749 mmHg 44%
    20:00 +13°C° 0 mm 6 mps 750 mmHg 49%
    21:00 +10°C° 0 mm 6 mps 750 mmHg 53%
    22:00 +10°C° 0 mm 5 mps 750 mmHg 55%
    23:00 +10°C° 0 mm 5 mps 750 mmHg 57%

    29 April, Monday

    Time Temperature Precipitation Wind Pressure Humidity
    00:00 +9°C° 0 mm 5 mps 750 mmHg 58%
    01:00 +9°C° 0 mm 5 mps 750 mmHg 61%
    02:00 +8°C° 0 mm 5 mps 750 mmHg 64%
    03:00 +8°C° 0 mm 4 mps 749 mmHg 67%
    04:00 +8°C° 0 mm 4 mps 749 mmHg 71%
    05:00 +7°C° 0 mm 4 mps 749 mmHg 75%
    06:00 +7°C° 0 mm 4 mps 749 mmHg 79%
    07:00 +9°C° 0 mm 5 mps 749 mmHg 71%
    08:00 +12°C° 0 mm 5 mps 749 mmHg 64%
    09:00 +14°C° 0 mm 5 mps 748 mmHg 57%
    10:00 +15°C° 0 mm 5 mps 748 mmHg 53%
    11:00 +17°C° 0 mm 5 mps 748 mmHg 48%
    12:00 +19°C° 0 mm 5 mps 747 mmHg 44%
    13:00 +19°C° 0 mm 5 mps 747 mmHg 43%
    14:00 +19°C° 0 mm 6 mps 746 mmHg 43%
    15:00 +18°C° 0 mm 7 mps 746 mmHg 43%
    16:00 +17°C° 0 mm 7 mps 746 mmHg 46%
    17:00 +16°C° 0 mm 7 mps 746 mmHg 49%
    18:00 +15°C° 0 mm 6 mps 746 mmHg 52%
    19:00 +14°C° 0 mm 6 mps 746 mmHg 53%
    20:00 +13°C° 0 mm 6 mps 746 mmHg 54%
    21:00 +11°C° 0 mm 6 mps 746 mmHg 55%
    22:00 +10°C° 0 mm 5 mps 746 mmHg 60%
    23:00 +9°C° 0 mm 5 mps 746 mmHg 65%

    30 April, Tuesday

    Time Temperature Precipitation Wind Pressure Humidity
    00:00 +9°C° 0 mm 5 mps 746 mmHg 70%
    01:00 +8°C° 0 mm 4 mps 746 mmHg 72%
    02:00 +8°C° 0 mm 4 mps 746 mmHg 75%
    03:00 +8°C° 0 mm 4 mps 745 mmHg 78%
    04:00 +8°C° 0 mm 4 mps 745 mmHg 79%
    05:00 +9°C° 0 mm 3 mps 745 mmHg 80%
    06:00 +9°C° 0 mm 3 mps 745 mmHg 81%
    07:00 +10°C° 0 mm 4 mps 745 mmHg 76%
    08:00 +12°C° 0 mm 4 mps 744 mmHg 70%
    09:00 +13°C° 0 mm 5 mps 744 mmHg 65%
    10:00 +14°C° 0 mm 5 mps 743 mmHg 61%
    11:00 +16°C° 0 mm 5 mps 743 mmHg 57%
    12:00 +17°C° 0 mm 5 mps 742 mmHg 53%
    13:00 +17°C° 0.1 mm 5 mps 742 mmHg 52%
    14:00 +17°C° 0.1 mm 6 mps 741 mmHg 51%
    15:00 +17°C° 0.1 mm 6 mps 741 mmHg 50%
    16:00 +15°C° 0.4 mm 6 mps 741 mmHg 59%
    17:00 +14°C° 0.4 mm 6 mps 741 mmHg 69%
    18:00 +11°C° 0.4 mm 7 mps 741 mmHg 78%
    19:00 +10°C° 1.2 mm 5 mps 741 mmHg 77%
    20:00 +11°C° 1.2 mm 3 mps 742 mmHg 76%
    21:00 +11°C° 1.2 mm 1 mps 742 mmHg 75%
    22:00 +10°C° 0.1 mm 1 mps 742 mmHg 77%
    23:00 +8°C° 0.1 mm 2 mps 742 mmHg 79%

    1 May, Wednesday

    Time Temperature Precipitation Wind Pressure Humidity
    00:00 +8°C° 0.1 mm 3 mps 742 mmHg 82%
    01:00 +7°C° 0.1 mm 3 mps 742 mmHg 76%
    02:00 +5°C° 0.1 mm 3 mps 742 mmHg 70%
    03:00 +4°C° 0.1 mm 3 mps 742 mmHg 65%
    04:00 +4°C° 0 mm 3 mps 742 mmHg 65%
    05:00 +4°C° 0 mm 3 mps 742 mmHg 65%
    06:00 +4°C° 0 mm 3 mps 742 mmHg 65%
    07:00 +7°C° 0 mm 3 mps 742 mmHg 56%
    08:00 +9°C° 0 mm 3 mps 742 mmHg 46%
    09:00 +11°C° 0 mm 4 mps 741 mmHg 37%
    10:00 +12°C° 0 mm 4 mps 741 mmHg 34%
    11:00 +13°C° 0 mm 5 mps 741 mmHg 31%
    12:00 +13°C° 0 mm 6 mps 741 mmHg 27%
    13:00 +14°C° 0 mm 6 mps 741 mmHg 28%
    14:00 +14°C° 0 mm 5 mps 740 mmHg 28%
    15:00 +14°C° 0 mm 5 mps 740 mmHg 28%
    16:00 +14°C° 0 mm 5 mps 741 mmHg 35%
    17:00 +13°C° 0 mm 4 mps 741 mmHg 41%
    18:00 +13°C° 0 mm 4 mps 742 mmHg 48%
    19:00 +11°C° 0 mm 3 mps 742 mmHg 54%
    20:00 +10°C° 0 mm 2 mps 743 mmHg 61%
    21:00 +9°C° 0 mm 2 mps 743 mmHg 67%
    22:00 +9°C° 0 mm 2 mps 743 mmHg 69%
    23:00 +8°C° 0 mm 2 mps 743 mmHg 71%
    Show more